STARLINK-34396

Last updated on Thu Jul 03 2025 00:02:07 GMT+0000 (Coordinated Universal Time)

1 64436U 25129AA 25183.58335648 -.01561341 00000+0 -16559-1 0 9992 2 64436 69.9997 351.2973 0003242 273.1437 240.5824 15.66786333 3637
UTC large
Height (km)
Speed (km/s)
/
Latitude / Longitude
Inclination (degrees)
Orbital Period (minutes)
Azimuth
Elevation
Range (km)
Doppler Factor

Next 0 passes for location: London (51.5072 / 0.1276)

Sorry there are no passes over London.